map of LPI home
Great Circle Mapper logo
LPI - Airport
Location
City:  Linköping, Sweden
Name:SAAB
ICAO / IATA:ESSL / LPI

Details
Type:Airport (Aerodrome, Airfield)
Use:Public/Civil
Latitude:58°24'22"N (58.406150)
Longitude:15°40'50"E (15.680508)
Datum:WGS 1984
Elevation:172 ft (52 m)
Variation:4.6°E (WMM2015 magnetic declination)
Runways:1
Longest:6989 × 131 ft (2130 × 40 m), paved

Time
Time Zone:UTC+1 (DST+2)
Local Time:

Weather
METAR:ESSL 220750Z 27007KT 240V320 9999 FEW017 SCT022 BKN025 07/05 Q0989

Related Locations
Nearby:
Farthest:CHT: 11297 mi / 18180 km
Waitangi [Tuuta], Chatham Islands, NZ

Find:

   beyond  
but within

Other Information
Maps:
NOTAMs:
Links:
Sources:

  
flag of Sweden   

Sectional Chart

Flight Planning
at skyvector.com

Satellite Image

Google Maps Satellite View

 

Copyright © 2004-2014 Karl L. Swartz. All rights reserved.
The Great Circle Mapper name and logo are trademarks of the Great Circle Mapper.
All other trademarks mentioned herein belong to their respective owners.
Please see credits for attibutions and further copyright information.

  Follow gcmap on Facebook Follow gcmap on Twitter

hCard Microformat

Geo Microformat